TimeEST,TemperatureF,Dew PointF,Humidity,Sea Level PressureIn,VisibilityMPH,Wind Direction,Wind SpeedMPH,Gust SpeedMPH,PrecipitationIn,Events,Conditions,WindDirDegrees,DateUTC
12:15 AM,37.4,28.4,70,29.89,10.0,NW,8.1,-,N/A,,Clear,310,2012-11-04 04:15:00
12:35 AM,37.4,26.6,65,29.90,10.0,NW,9.2,-,N/A,,Clear,320,2012-11-04 04:35:00
12:55 AM,37.4,26.6,65,29.90,10.0,NW,6.9,16.1,N/A,,Clear,320,2012-11-04 04:55:00
1:15 AM,37.4,26.6,65,29.90,10.0,NW,8.1,20.7,N/A,,Clear,320,2012-11-04 05:15:00
1:35 AM,37.4,26.6,65,29.90,10.0,NW,8.1,-,N/A,,Clear,310,2012-11-04 05:35:00
1:55 AM,37.4,26.6,65,29.90,10.0,NW,11.5,-,N/A,,Clear,320,2012-11-04 05:55:00
1:15 AM,37.4,26.6,65,29.90,10.0,NW,11.5,16.1,N/A,,Clear,320,2012-11-04 06:15:00
1:35 AM,37.4,26.6,65,29.91,10.0,NW,6.9,-,N/A,,Clear,310,2012-11-04 06:35:00
1:55 AM,37.4,26.6,65,29.91,10.0,NW,9.2,-,N/A,,Clear,310,2012-11-04 06:55:00
2:15 AM,37.4,26.6,65,29.90,10.0,NW,8.1,-,N/A,,Clear,320,2012-11-04 07:15:00
2:35 AM,35.6,26.6,70,29.90,10.0,NW,5.8,-,N/A,,Clear,310,2012-11-04 07:35:00
2:55 AM,35.6,26.6,70,29.90,10.0,NNW,9.2,-,N/A,,Clear,330,2012-11-04 07:55:00
3:15 AM,37.4,26.6,65,29.90,10.0,NW,6.9,-,N/A,,Clear,320,2012-11-04 08:15:00
3:35 AM,35.6,26.6,70,29.90,10.0,NW,6.9,-,N/A,,Clear,310,2012-11-04 08:35:00
3:55 AM,35.6,26.6,70,29.90,10.0,NW,6.9,-,N/A,,Clear,310,2012-11-04 08:55:00
4:15 AM,35.6,26.6,70,29.91,10.0,NW,5.8,-,N/A,,Clear,310,2012-11-04 09:15:00
4:35 AM,35.6,26.6,70,29.91,10.0,NNW,10.4,-,N/A,,Clear,340,2012-11-04 09:35:00
4:55 AM,35.6,26.6,70,29.92,10.0,NW,6.9,16.1,N/A,,Clear,320,2012-11-04 09:55:00
5:15 AM,35.6,26.6,70,29.92,10.0,NNW,10.4,-,N/A,,Clear,330,2012-11-04 10:15:00
5:35 AM,35.6,26.6,70,29.92,10.0,NW,5.8,-,N/A,,Clear,320,2012-11-04 10:35:00
5:45 AM,35.6,26.6,70,29.92,10.0,NNW,1.2,-,N/A,,Clear,340,2012-11-04 10:45:00
7:45 AM,37.4,28.4,70,29.95,10.0,NNW,6.9,17.3,N/A,,Clear,330,2012-11-04 12:45:00
8:45 AM,39.2,28.4,65,29.95,10.0,NNW,13.8,20.7,N/A,,Clear,340,2012-11-04 13:45:00
9:45 AM,42.8,28.4,57,29.94,10.0,NNW,11.5,20.7,N/A,,Clear,340,2012-11-04 14:45:00
10:45 AM,44.6,28.4,53,29.94,10.0,North,11.5,17.3,N/A,,Clear,350,2012-11-04 15:45:00
11:45 AM,46.4,30.2,53,29.92,10.0,NNW,11.5,17.3,N/A,,Partly Cloudy,340,2012-11-04 16:45:00
12:45 PM,46.4,30.2,53,29.91,10.0,NNW,10.4,-,N/A,,Partly Cloudy,340,2012-11-04 17:45:00
1:45 PM,46.4,30.2,53,29.91,10.0,NNW,12.7,18.4,N/A,,Partly Cloudy,340,2012-11-04 18:45:00
2:45 PM,46.4,28.4,50,29.91,10.0,NNW,10.4,17.3,N/A,,Partly Cloudy,330,2012-11-04 19:45:00
3:45 PM,44.6,28.4,53,29.93,10.0,NNW,10.4,-,N/A,,Clear,330,2012-11-04 20:45:00
4:45 PM,42.8,26.6,53,29.93,10.0,NNW,5.8,-,N/A,,Clear,340,2012-11-04 21:45:00
5:45 PM,37.4,26.6,65,29.95,10.0,North,6.9,-,N/A,,Clear,350,2012-11-04 22:45:00
6:45 PM,37.4,26.6,65,29.97,10.0,North,6.9,-,N/A,,Clear,350,2012-11-04 23:45:00
7:45 PM,37.4,26.6,65,29.97,10.0,North,6.9,-,N/A,,Overcast,350,2012-11-05 00:45:00
9:15 PM,39.2,26.6,61,29.97,10.0,North,12.7,-,N/A,,Overcast,350,2012-11-05 02:15:00
9:35 PM,39.2,26.6,61,29.97,10.0,NNW,11.5,-,N/A,,Overcast,340,2012-11-05 02:35:00
9:55 PM,39.2,26.6,61,29.97,10.0,NW,6.9,-,N/A,,Overcast,320,2012-11-05 02:55:00
10:15 PM,37.4,26.6,65,29.97,10.0,NNW,5.8,-,N/A,,Overcast,330,2012-11-05 03:15:00
10:35 PM,37.4,28.4,70,29.97,10.0,NNW,6.9,-,N/A,,Overcast,330,2012-11-05 03:35:00
10:55 PM,37.4,26.6,65,29.97,10.0,NNW,9.2,-,N/A,,Overcast,340,2012-11-05 03:55:00